Le Ponant — FGZZ — position and weather

sailwx.info

Track history (hours):
 
Tides and Currents Weather Stations Pressure Air Temp Water Temp Dewpoint Dewpoint Depression Visibility Wind Speed Wind Dir Waves Ship Positions

Le Ponant

Operator: Compangy des Iles du Ponant

Last reported at 2014-Oct-20 19:32 UTC. Time now 2014-Oct-22 21:36 UTC.
Position N 42°11' E 008°17'.

Length 84 m; draft 4.2 m.

Type: Passenger vessel. MMSI: 227186000.

Date/timePositionNaut miles runAvg speedWind from/ knotsBaromVisibWave heightAir tempDewpointWater temp
2014-Oct-20 19:32N 42°11' E 008°17'32 1.4
2014-Oct-19 21:04N 42°35' E 008°46'22 1.3
2014-Oct-19 03:34N 42°51' E 008°25'7 7.2
2014-Oct-19 02:34N 42°56' E 008°18'7 6.7
2014-Oct-19 01:33N 43°00' E 008°12'13 6.4
2014-Oct-18 23:32N 43°10' E 007°59'13 6.5
2014-Oct-18 21:33N 43°19' E 007°47'7 7.0
2014-Oct-18 20:33N 43°24' E 007°41'7 7.4
2014-Oct-18 19:33N 43°29' E 007°33'7 7.1
2014-Oct-18 18:33N 43°34' E 007°26'7 7.3
2014-Oct-18 17:33N 43°40' E 007°20'2 2.4
2014-Oct-18 16:31N 43°42' E 007°17'0 0.0
2014-Oct-18 15:31N 43°42' E 007°17'0 0.0
2014-Oct-18 14:31N 43°42' E 007°17'0 0.0
2014-Oct-18 13:31N 43°42' E 007°17'0 0.0
2014-Oct-18 12:31N 43°42' E 007°17'0 0.0
2014-Oct-18 11:25N 43°42' E 007°17'0 0.0
2014-Oct-18 10:31N 43°42' E 007°17'0 0.0
2014-Oct-18 09:31N 43°42' E 007°17'0 0.0
2014-Oct-18 08:31N 43°42' E 007°17'0 0.0
2014-Oct-18 07:31N 43°42' E 007°17'0 0.0
2014-Oct-18 06:31N 43°42' E 007°17'0 0.5
2014-Oct-18 05:33N 43°41' E 007°17'46 7.6
2014-Oct-17 23:32N 43°26' E 008°17'8 7.7
2014-Oct-17 22:29N 43°23' E 008°28'9 9.0
2014-Oct-17 21:32N 43°21' E 008°39'1110.1
2014-Oct-17 20:24N 43°18' E 008°54'8 9.8
2014-Oct-17 19:32N 43°17' E 009°06'10 9.8
2014-Oct-17 18:33N 43°15' E 009°19'10 9.3
2014-Oct-17 17:29N 43°14' E 009°32'11 9.8
2014-Oct-17 16:21N 43°11' E 009°47'810.3
2014-Oct-17 15:33N 43°08' E 009°57'1211.6
2014-Oct-17 14:34N 42°59' E 010°08'1211.6
2014-Oct-17 13:33N 42°51' E 010°19'2 0.3
2014-Oct-17 06:05N 42°49' E 010°20'6 6.8
2014-Oct-17 05:10N 42°52' E 010°13'7 8.1
2014-Oct-17 04:15N 42°51' E 010°03'  
2014-Oct-14 23:33N 40°31' E 014°10'  
2014-Oct-11 21:23N 36°30' E 015°05'2010.6
2014-Oct-11 19:28N 36°14' E 014°50'25 1.8
2014-Oct-11 05:33N 35°54' E 014°32'8 7.7
2014-Oct-11 04:33N 36°01' E 014°37'1010.1
2014-Oct-11 03:32N 36°09' E 014°44'  
Track history (hours):
 
Tides and Currents Weather Stations Pressure Air Temp Water Temp Dewpoint Dewpoint Depression Visibility Wind Speed Wind Dir Waves Ship Positions

Le Ponant

Operator: Compangy des Iles du Ponant

Last reported at 2014-Oct-20 19:32 UTC. Time now 2014-Oct-22 21:36 UTC.
Position N 42°11' E 008°17'.

Length 84 m; draft 4.2 m.

Type: Passenger vessel. MMSI: 227186000.

Date/timePositionNaut miles runAvg speedWind from/ knotsBaromVisibWave heightAir tempDewpointWater temp
2014-Oct-20 19:32N 42°11' E 008°17'32 1.4
2014-Oct-19 21:04N 42°35' E 008°46'22 1.3
2014-Oct-19 03:34N 42°51' E 008°25'7 7.2
2014-Oct-19 02:34N 42°56' E 008°18'7 6.7
2014-Oct-19 01:33N 43°00' E 008°12'13 6.4
2014-Oct-18 23:32N 43°10' E 007°59'13 6.5
2014-Oct-18 21:33N 43°19' E 007°47'7 7.0
2014-Oct-18 20:33N 43°24' E 007°41'7 7.4
2014-Oct-18 19:33N 43°29' E 007°33'7 7.1
2014-Oct-18 18:33N 43°34' E 007°26'7 7.3
2014-Oct-18 17:33N 43°40' E 007°20'2 2.4
2014-Oct-18 16:31N 43°42' E 007°17'0 0.0
2014-Oct-18 15:31N 43°42' E 007°17'0 0.0
2014-Oct-18 14:31N 43°42' E 007°17'0 0.0
2014-Oct-18 13:31N 43°42' E 007°17'0 0.0
2014-Oct-18 12:31N 43°42' E 007°17'0 0.0
2014-Oct-18 11:25N 43°42' E 007°17'0 0.0
2014-Oct-18 10:31N 43°42' E 007°17'0 0.0
2014-Oct-18 09:31N 43°42' E 007°17'0 0.0
2014-Oct-18 08:31N 43°42' E 007°17'0 0.0
2014-Oct-18 07:31N 43°42' E 007°17'0 0.0
2014-Oct-18 06:31N 43°42' E 007°17'0 0.5
2014-Oct-18 05:33N 43°41' E 007°17'46 7.6
2014-Oct-17 23:32N 43°26' E 008°17'8 7.7
2014-Oct-17 22:29N 43°23' E 008°28'9 9.0
2014-Oct-17 21:32N 43°21' E 008°39'1110.1
2014-Oct-17 20:24N 43°18' E 008°54'8 9.8
2014-Oct-17 19:32N 43°17' E 009°06'10 9.8
2014-Oct-17 18:33N 43°15' E 009°19'10 9.3
2014-Oct-17 17:29N 43°14' E 009°32'11 9.8
2014-Oct-17 16:21N 43°11' E 009°47'810.3
2014-Oct-17 15:33N 43°08' E 009°57'1211.6
2014-Oct-17 14:34N 42°59' E 010°08'1211.6
2014-Oct-17 13:33N 42°51' E 010°19'2 0.3
2014-Oct-17 06:05N 42°49' E 010°20'6 6.8
2014-Oct-17 05:10N 42°52' E 010°13'7 8.1
2014-Oct-17 04:15N 42°51' E 010°03'  
2014-Oct-14 23:33N 40°31' E 014°10'  
2014-Oct-11 21:23N 36°30' E 015°05'2010.6
2014-Oct-11 19:28N 36°14' E 014°50'25 1.8
2014-Oct-11 05:33N 35°54' E 014°32'8 7.7
2014-Oct-11 04:33N 36°01' E 014°37'1010.1
2014-Oct-11 03:32N 36°09' E 014°44'  

Dump ship's entire track history